STARLINK-5223 (54069 NORAD) Tracking and Keplerian Element Data

This shows tracking and keplerian element data for the satellite.

Feedback or suggestion? Click here.




ElementValue
Catalog54069
NameSTARLINK-5223
Epoch Orbit548
Epoch Day325.33334491
Epoch Year2022
RAAN352.6237
Inclination53.2171
Eccentricity0.0001682
Argument of Perigee48.3451
Mean Anonmoly156.9523
Mean Motion15.49742294
Decay Rate-0.01159252
L11 54069U 22136U 22325.33334491 -.01159252 00000+0 -22451-1 0 9993
L22 54069 53.2171 352.6237 0001682 48.3451 156.9523 15.49742294 5480



Live tracking and technical data element details for STARLINK-5223 (NORAD 54069). STARLINK-5223 can be tracked NOW for your location showing map with azimuth and elevation plus other details from your city location.







IsCatalogInMostPopularTable: catalog: 54069, numindb: 1
Update: records affected: 1



GetName: 54069 STARLINK-5223

Hit Count: updated at: Mon, 28 Nov 2022 22:03:02 GMT